Tracking 22440 objects as of 27-Feb-2021
HD Live streaming from Space Station
objects crossing your sky now

EDUSAT

Track EDUSAT now!
10-day predictions
EDUSAT is classified as:


NORAD ID: 37788
Int'l Code: 2011-044A
Perigee: 637.4 km
Apogee: 692.2 km
Inclination: 98.4 °
Period: 97.9 minutes
Semi major axis: 7035 km
RCS: 0.1421 m2 (medium)
Launch date: August 17, 2011
Source: Italy (IT)
Launch site: Orenburg, Russia (OREN)

EduSat is a microsatellite built by the University of Rome.
aabbcc
Your satellite tracking list
Your tracking list is empty




NASA's NSSDC Master Catalog

Two Line Element Set (TLE):
1 37788U 11044A   21057.73340462  .00000145  00000-0  32196-4 0  9992
2 37788  98.4154 228.1754 0038950 136.5406 234.5461 14.71075683511425
Source of the keplerian elements: AFSPC